Regional Weather Roundup
Issued by NWS

Home | Current Version | Previous Version | Graphics & Text | Print | Product List | Glossary On
Versions: 1 2 3 4 5 6 7 8 9 10 11 12 13 14 15 16 17 18 19 20 21 22 23 24 25 26 27 28 29 30 31 32 33 34 35 36 37 38 39 40 41 42 43 44 45 46 47 48 49 50
000
ASUS43 KFSD 191702
RWRSD

WEATHER ROUNDUP FOR SOUTH DAKOTA
NATIONAL WEATHER SERVICE SIOUX FALLS SD
1200 PM CDT TUE AUG 19 2014

NOTE: "FAIR" INDICATES FEW OR NO CLOUDS BELOW 12,000 FEET WITH NO
SIGNIFICANT WEATHER AND/OR OBSTRUCTIONS TO VISIBILITY.


SDZ001>005-009-010-012>017-191800-
NORTHWEST AND NORTH CENTRAL SOUTH DAKOTA

CITY           SKY/WX    TMP DP  RH WIND       PRES   REMARKS
BUFFALO          N/A     83  57  41 S12       29.76S
FAITH            N/A     80  58  46 S9        29.82F
MOBRIDGE       SUNNY     78  64  61 CALM      29.79F
$$

SDZ012>016-024>037-041>051-057-063-072>074-191800-
SOUTHWEST AND SOUTH CENTRAL SOUTH DAKOTA

CITY           SKY/WX    TMP DP  RH WIND       PRES   REMARKS
RAPID CTY ARPT SUNNY     78  61  55 S9        29.85F
PIERRE         SUNNY     81  59  47 S3        29.81F
CUSTER           N/A    N/A N/A N/A MISG      29.97F
ELLSWORTH AFB  MOSUNNY   79  59  51 S13       29.84F
PHILIP         SUNNY     84  57  39 E8        29.81F
PINE RIDGE     SUNNY     83  59  44 S7        29.84F
WINNER         FAIR      83  57  41 SE6       29.84F
$$

SDZ004>011-016>023-039-040-191800-
NORTHEAST SOUTH DAKOTA

CITY           SKY/WX    TMP DP  RH WIND       PRES   REMARKS
ABERDEEN       SUNNY     81  60  48 NW8       29.80S
WATERTOWN      SUNNY     78  62  57 NW10      29.82R
SISSETON         N/A     80  65  59 N9        29.77F
$$

SDZ017-020-022-023-036>040-048>070-191800-
SOUTHEAST SOUTH DAKOTA

CITY           SKY/WX    TMP DP  RH WIND       PRES   REMARKS
SIOUX FALLS    MOSUNNY   80  62  54 W5        29.83R
HURON          SUNNY     81  59  47 NW7       29.81F
CHAMBERLAIN    SUNNY     80  60  51 S3        29.84F
MITCHELL       SUNNY     80  62  54 NW3       29.83S
YANKTON        SUNNY     79  61  53 W3        29.83S
$$

ABBREVIATIONS USED IN REMARKS
   TC - TEMPERATURE IN CELSIUS
  WCI - WIND CHILL INDEX
   HX - HEAT INDEX
  VSB - VISIBILITY




USA.gov is the U.S. government's official web portal to all federal, state and local government web resources and services.